Lid_Strength_Index
12 13 13 13 13 13 14 13 16 14 14 11 11 11 12 12 12 13 14 15 15 15 16 16 17 17 16 17 17 16 16 15 15 15 15 15 15 14 13 12 11 10 9 9
15 12 13 14 13 12 12 12 12 13 14 9 8 9 10 11 12 14 15 16 16 16 17 18 18 18 18 18 18 17 17 17 16 17 17 17 16 16 15 14 12 11 10 10
17 13 14 17 14 13 12 11 12 15 11 9 10 11 14 14 14 16 17 17 17 18 18 19 19 19 20 19 18 18 18 17 18 18 19 18 18 17 17 15 13 12 11 10
16 15 20 13 10 10 11 11 10 12 11 10 12 17 17 17 17 18 19 19 19 19 20 20 19 20 20 19 19 19 18 19 19 19 19 18 18 18 18 16 15 13 11 11
17 17 15 15 13 12 13 13 12 11 15 17 18 17 20 19 19 19 19 19 19 19 20 20 20 20 20 19 19 19 20 20 20 19 19 19 19 19 18 17 16 14 12 11
17 19 20 15 14 14 10 15 15 15 16 18 16 16 19 20 19 19 19 19 20 20 20 21 21 20 20 20 20 21 21 20 20 20 20 20 19 19 18 17 16 14 12 11
16 17 15 14 17 15 16 15 17 16 16 16 18 20 20 20 20 19 19 20 20 21 22 22 21 20 21 21 21 21 21 21 21 21 21 20 19 18 18 17 16 14 12 11
16 17 18 20 17 15 17 18 18 19 19 19 20 20 20 20 20 20 21 21 21 22 22 22 21 21 22 22 22 22 22 22 22 21 20 18 19 19 17 16 15 13 12 11
14 16 21 22 21 19 18 19 20 20 20 20 21 22 21 21 21 21 22 22 22 23 23 22 22 22 23 23 22 22 23 23 22 20 19 18 18 17 16 16 14 13 12 12
19 21 22 22 22 21 20 21 21 21 21 20 22 22 22 22 22 22 22 23 23 23 24 24 23 23 23 23 22 23 24 22 20 20 20 18 17 16 14 12 14 14 15 14
22 22 22 22 22 22 22 22 23 22 22 22 22 24 23 23 23 23 23 23 23 24 24 25 24 24 24 23 23 24 23 21 20 20 20 19 17 16 15 14 13 14 15 14
18 21 21 22 22 22 23 23 23 23 24 23 22 23 23 23 23 23 24 24 25 25 25 26 26 26 25 24 24 24 23 22 21 20 20 19 19 18 15 13 13 13 12 13
25 26 25 24 24 23 24 24 23 23 23 25 24 24 24 24 24 25 26 26 26 27 27 28 28 28 27 25 25 24 24 22 21 21 20 20 20 19 20 18 16 15 14 15
26 25 26 27 27 26 25 25 25 26 26 25 26 26 26 27 27 28 28 29 29 31 31 31 31 30 27 25 26 26 25 22 22 21 20 20 20 20 20 21 22 22 18 17
29 28 27 28 28 29 29 29 29 28 29 29 30 30 31 32 32 32 33 33 34 35 34 32 32 30 26 26 26 27 24 22 22 21 20 20 20 20 21 21 22 22 22 19
31 31 30 30 31 32 32 34 32 33 33 33 33 31 32 33 35 36 36 36 33 32 32 34 32 29 28 28 26 25 24 21 22 22 21 21 21 21 21 22 22 23 23 21
31 32 34 34 32 34 36 37 34 34 35 36 36 37 37 37 37 36 35 37 38 36 35 35 31 29 29 28 28 26 25 25 22 23 22 21 22 22 22 22 23 23 23 22
35 35 34 33 33 35 38 39 39 38 37 37 38 39 38 36 34 36 36 38 36 35 35 33 31 31 29 29 30 28 28 28 27 27 24 23 23 23 23 23 23 24 23 23
38 36 37 34 35 35 37 39 40 39 38 38 38 35 38 39 39 39 41 39 37 37 33 35 24 30 32 29 27 29 29 28 29 28 26 24 24 24 24 24 24 24 24 24
41 41 38 39 41 38 38 40 39 39 39 39 40 39 37 38 41 41 42 35 35 33 37 35 36 33 32 31 26 32 32 31 30 31 30 27 25 25 25 25 25 25 25 25
37 40 38 37 39 40 40 39 38 36 37 40 37 37 37 39 42 42 37 36 33 37 36 33 36 32 33 31 31 35 35 34 32 31 33 31 29 27 26 27 26 26 26 26
41 39 39 39 38 37 38 38 38 39 39 40 42 43 42 36 40 40 35 32 35 33 35 35 34 30 31 28 33 35 35 35 35 34 32 32 33 32 29 29 29 27 27 27
39 39 38 37 35 34 40 40 38 38 37 38 37 39 37 34 36 35 32 34 35 34 33 33 30 24 23 32 34 35 35 35 34 32 33 33 31 31 31 31 29 30 29 29
39 39 37 40 41 38 35 35 39 37 37 40 38 36 36 35 33 32 31 32 31 31 32 31 28 21 26 31 31 30 29 29 29 29 29 29 33 33 34 33 32 31 31 30
38 39 40 39 37 33 36 39 42 42 42 37 36 35 35 33 30 33 36 33 29 28 30 27 22 21 25 26 26 26 26 27 28 29 30 33 35 36 36 36 34 33 32 32
38 34 34 34 33 34 35 39 35 37 39 35 35 34 34 35 33 31 31 30 30 28 29 29 29 27 25 24 25 25 25 26 26 27 29 32 34 34 34 33 33 32 32 32
41 38 41 39 38 38 38 37 38 32 34 35 32 34 35 36 34 32 30 29 29 28 28 28 27 26 27 27 26 25 25 27 27 28 31 34 34 34 34 33 33 32 32 31